Wind_Speed
26 26 27 27 26 26 27 28 28 27 28 27 28 29 29 30 30 30 31 31 32 33 34 35 36 37 37 37 38 39 40 41 42 43 43 44 45 45 45 45 46 46 46 47
25 25 27 28 27 26 26 27 27 27 27 26 27 28 29 30 31 31 32 31 31 32 33 34 35 36 37 37 37 38 39 39 41 42 42 42 43 44 45 45 45 45 46 46
25 25 27 28 26 26 26 26 27 26 26 26 27 28 29 30 30 31 31 31 32 32 32 33 34 35 36 36 37 38 39 39 40 41 41 42 43 43 44 44 44 44 44 44
25 25 27 25 25 26 26 26 26 26 27 27 27 27 28 29 30 31 31 32 32 33 33 33 33 34 36 36 37 38 39 40 40 40 41 42 42 42 43 44 44 44 44 43
26 25 25 24 24 25 26 26 26 27 27 28 28 28 28 28 28 29 31 32 32 32 32 33 34 35 35 36 36 38 39 39 40 41 40 41 41 42 43 43 43 43 43 44
25 25 25 23 23 24 26 26 25 27 27 28 29 29 28 29 29 29 29 30 30 31 32 33 34 35 36 36 37 38 38 39 39 40 41 41 41 41 42 42 43 43 43 43
25 26 25 24 23 24 25 25 25 26 27 28 29 29 29 30 30 30 30 30 30 30 31 32 33 34 35 37 37 38 38 38 39 39 40 41 40 40 41 41 41 41 41 42
26 26 25 24 25 25 25 26 26 26 27 28 28 29 29 30 30 30 30 31 31 31 32 33 33 34 35 36 37 38 37 36 36 37 37 37 38 38 39 39 39 39 40 40
25 25 25 25 25 26 26 26 26 26 27 28 28 29 29 30 30 30 30 30 31 32 32 33 34 34 34 34 35 35 34 34 34 34 34 35 36 37 37 38 38 38 38 38
24 24 24 25 25 25 26 26 26 27 27 28 28 29 29 29 30 30 30 31 31 31 31 32 33 34 34 34 33 33 33 32 33 33 34 34 35 36 36 37 37 37 37 37
23 24 24 25 25 25 25 26 26 27 27 27 27 28 29 29 29 30 30 30 31 31 31 31 31 32 32 32 32 31 31 31 32 33 33 34 34 35 35 36 35 35 36 36
23 23 24 24 25 25 25 26 26 27 27 27 28 28 28 28 28 29 29 29 29 29 30 30 29 29 29 30 31 31 31 32 32 33 33 34 34 34 33 34 34 34 35 34
22 23 24 24 25 25 24 25 25 26 26 27 27 27 27 27 27 27 27 27 27 27 27 27 27 27 27 28 29 30 30 31 31 31 32 33 33 33 33 33 33 33 33 33
21 22 23 23 24 24 24 25 25 25 25 25 26 26 26 27 27 26 26 26 25 24 24 24 25 25 26 26 26 27 28 29 29 30 31 31 32 32 32 32 32 32 32 32
20 21 22 22 23 24 24 24 24 24 25 25 25 26 26 26 26 26 25 25 24 24 24 24 24 24 24 25 26 26 27 28 28 29 30 30 30 30 31 31 31 31 31 31
21 22 22 22 23 24 24 24 23 23 24 24 25 25 25 25 24 24 24 24 24 24 24 24 24 24 24 24 25 26 26 27 28 29 29 29 30 30 30 30 31 31 31 31
19 21 21 21 21 22 22 22 23 23 23 23 24 24 24 24 23 23 23 23 24 24 24 24 24 24 24 25 25 26 26 27 27 28 29 29 29 30 30 30 30 30 30 30
17 18 19 20 20 20 20 21 22 22 23 23 23 23 23 23 23 23 23 23 23 23 23 23 24 24 25 25 26 26 26 27 28 28 29 29 29 29 29 29 30 30 30 30
16 16 17 18 19 19 19 20 21 21 21 22 22 22 22 22 22 23 23 23 23 23 23 23 23 24 24 25 26 26 27 28 28 28 28 28 28 28 28 28 28 29 29 28
14 14 15 16 17 18 19 19 20 20 20 20 20 21 21 22 22 22 23 23 23 23 24 24 24 24 25 25 26 27 27 28 28 28 28 28 28 27 27 27 27 27 26 26
13 13 14 14 15 17 17 18 18 18 18 19 19 20 20 21 21 22 22 22 23 23 24 24 24 25 26 26 26 26 27 27 27 27 27 26 26 26 26 26 25 24 24 24
13 13 14 15 16 17 17 18 18 18 18 18 18 19 19 20 20 20 21 21 22 23 23 24 24 24 25 24 24 24 24 24 24 24 24 24 24 24 24 23 23 23 23 23
13 14 15 16 16 17 17 17 17 17 18 18 18 18 18 19 19 19 20 20 20 21 22 22 22 22 22 22 22 22 22 22 22 22 22 22 22 22 22 22 22 22 22 22
14 14 15 16 16 17 17 16 16 16 17 17 17 18 18 18 18 19 19 19 19 19 19 19 19 20 20 20 20 20 20 20 20 20 20 21 21 21 21 21 21 21 22 22
14 15 15 16 17 17 17 17 17 17 17 17 17 17 17 17 17 18 18 18 18 18 18 18 18 18 18 18 18 19 19 18 18 18 19 19 19 19 19 20 21 22 23 23
14 15 15 16 17 17 17 17 17 17 16 17 17 17 17 17 17 17 17 18 18 18 18 18 18 18 18 18 17 17 17 17 17 17 17 18 18 18 19 20 21 22 22 23
14 14 15 16 16 17 17 17 17 17 17 17 17 17 16 17 17 17 17 17 17 17 17 17 17 17 17 17 16 16 16 16 16 17 17 17 18 18 19 19 20 20 20 21
Wind_Direction
253 252 249 250 251 252 254 256 260 262 263 264 264 263 263 262 260 261 260 260 260 260 260 259 258 257 258 258 258 258 259 260 262 264 265 266 267 266 268 269 270 271 271 271
253 251 250 250 250 252 254 257 260 262 261 262 264 265 265 264 263 264 261 260 262 263 262 261 259 259 259 259 260 260 261 262 263 264 267 268 267 267 268 270 271 272 272 271
256 254 254 252 251 254 257 259 261 262 263 263 265 266 266 264 264 266 262 260 264 265 263 261 260 259 259 259 260 262 262 263 265 265 268 268 268 270 270 271 271 272 272 272
258 257 258 257 256 258 259 260 263 264 265 264 265 265 266 265 266 267 265 263 265 266 264 262 261 261 260 261 261 262 263 264 265 266 267 268 269 270 271 271 272 272 273 273
259 259 260 259 259 260 262 263 265 266 266 266 266 266 265 266 267 267 266 265 265 265 265 264 263 262 261 262 262 264 265 266 266 266 267 269 270 271 271 272 272 273 272 273
259 260 261 260 261 262 263 265 267 268 268 267 268 268 267 268 268 268 267 265 265 265 266 265 264 262 262 262 264 265 265 266 266 266 266 269 271 272 272 273 273 274 273 273
259 261 260 261 263 264 265 268 268 268 268 268 268 269 269 268 269 270 268 266 266 267 267 266 266 265 264 264 265 266 267 267 266 266 267 269 270 272 273 273 274 275 275 275
259 260 261 263 264 266 268 269 269 270 270 269 269 270 269 270 270 271 270 269 268 268 267 268 267 267 266 265 265 266 266 266 266 266 268 269 270 271 272 273 274 275 276 276
258 261 263 264 265 267 269 270 269 269 269 269 269 270 269 270 270 270 270 270 269 269 268 268 268 268 267 266 266 265 265 265 266 266 268 270 272 272 273 274 274 275 276 276
258 260 263 264 266 267 268 270 270 270 271 270 269 269 269 269 269 270 271 271 271 271 270 269 269 268 266 265 265 265 264 265 266 267 269 272 273 273 273 273 274 275 276 277
260 262 264 265 266 267 267 269 271 271 272 272 271 271 271 270 271 271 271 272 272 272 271 271 270 268 266 264 264 264 264 265 266 268 271 273 274 274 273 273 274 275 276 277
263 264 265 266 268 269 269 270 271 272 273 273 273 272 272 272 272 272 272 272 273 273 273 272 271 268 266 264 263 264 265 266 267 269 271 273 274 274 274 274 274 275 276 278
263 263 265 267 269 270 271 272 272 274 275 275 274 274 273 272 273 273 273 273 273 272 271 270 269 268 267 266 266 266 266 267 268 270 272 274 274 274 275 275 275 275 276 277
263 265 266 268 269 270 272 274 275 275 276 275 274 274 273 272 272 273 274 273 272 273 273 272 270 270 269 268 268 268 268 269 270 272 274 275 275 275 274 275 275 275 276 277
264 267 268 269 270 272 274 276 277 277 276 275 274 273 273 273 274 274 275 274 273 272 273 273 273 272 271 271 270 270 271 271 272 273 275 276 276 275 274 275 275 276 276 276
268 271 273 273 274 275 276 276 277 277 277 277 276 274 274 274 274 275 275 273 272 272 273 272 271 271 271 272 273 273 273 273 274 275 275 276 276 275 275 275 276 276 276 276
272 274 275 276 276 277 276 275 276 276 276 277 277 274 273 274 274 275 274 273 273 273 272 270 270 271 272 273 274 274 274 275 276 276 277 277 276 276 276 276 276 275 276 276
275 276 276 277 278 279 278 276 277 278 277 277 276 275 273 273 273 275 275 274 274 275 274 271 272 272 273 274 275 276 277 278 278 278 279 279 278 277 276 275 276 276 275 275
278 279 280 281 282 283 281 280 280 280 279 278 276 275 275 274 274 276 276 276 276 276 276 275 275 276 276 276 276 277 278 279 279 279 279 279 278 277 276 276 276 277 276 275
280 281 284 286 287 287 286 284 285 285 283 279 278 278 277 276 276 276 276 276 277 277 276 276 277 277 278 279 279 279 279 280 280 279 279 279 278 278 277 277 277 277 276 274
285 288 291 292 293 295 294 291 291 290 288 285 282 281 279 277 277 277 277 277 277 277 277 277 277 278 280 281 281 281 281 281 280 279 279 279 278 278 278 277 276 275 275 274
287 291 294 296 298 299 297 294 292 292 291 289 287 284 282 280 280 279 279 280 280 280 280 280 280 280 282 282 283 283 283 282 280 280 279 278 278 278 277 276 274 275 275 275
288 292 296 299 301 302 301 297 294 294 293 292 289 287 285 284 283 282 283 284 284 284 284 283 282 283 284 284 283 283 283 283 281 280 279 279 279 278 276 275 274 275 276 276
289 294 298 300 302 303 303 300 298 297 296 294 291 290 288 286 286 285 285 286 286 286 286 286 285 285 285 285 284 284 285 284 282 281 280 280 279 279 277 276 275 276 277 278
291 295 298 300 302 303 303 301 299 298 298 297 296 294 293 290 288 288 287 286 285 286 287 287 287 287 287 287 286 286 287 286 284 283 282 281 281 280 280 278 278 278 279 280
292 295 298 300 301 302 302 302 301 300 300 300 299 299 297 294 292 292 290 289 288 288 288 289 289 289 290 289 288 288 287 286 284 284 284 283 283 283 283 283 283 282 281 281
294 297 300 302 303 303 303 303 301 300 300 300 301 300 298 296 294 293 293 293 292 291 290 290 290 290 290 289 288 288 288 288 288 288 286 285 285 285 285 286 286 284 283 283
Height
5597 5598 5599 5601 5602 5603 5604 5605 5606 5608 5608 5609 5608 5609 5609 5609 5609 5610 5611 5612 5613 5613 5614 5614 5615 5616 5616 5617 5618 5619 5620 5620 5620 5620 5620 5620 5620 5620 5619 5619 5618 5618 5617 5617
5590 5591 5591 5592 5594 5595 5596 5598 5599 5599 5600 5601 5600 5600 5600 5600 5601 5601 5602 5603 5603 5603 5604 5604 5605 5606 5607 5607 5608 5608 5609 5609 5609 5609 5609 5609 5608 5608 5608 5607 5607 5606 5605 5604
5583 5583 5583 5585 5588 5589 5590 5590 5591 5591 5594 5593 5593 5592 5592 5592 5592 5592 5593 5594 5594 5594 5594 5594 5595 5596 5596 5597 5597 5598 5598 5598 5598 5598 5598 5597 5597 5596 5596 5595 5595 5594 5593 5592
5575 5577 5576 5582 5581 5581 5582 5583 5583 5584 5584 5584 5584 5584 5584 5583 5583 5583 5584 5584 5585 5585 5585 5585 5585 5586 5586 5586 5587 5587 5587 5587 5587 5587 5587 5586 5586 5585 5585 5584 5583 5582 5582 5581
5568 5568 5569 5573 5574 5574 5574 5575 5576 5576 5576 5576 5575 5575 5576 5575 5575 5575 5575 5575 5575 5575 5575 5575 5575 5575 5576 5576 5576 5576 5576 5576 5576 5575 5575 5574 5574 5574 5573 5572 5571 5570 5570 5569
5561 5561 5562 5567 5567 5566 5567 5567 5568 5567 5567 5567 5567 5567 5568 5567 5566 5566 5566 5565 5565 5565 5565 5565 5565 5565 5565 5566 5566 5565 5565 5565 5564 5563 5563 5563 5563 5562 5561 5560 5559 5558 5558 5557
5554 5553 5555 5559 5559 5559 5560 5561 5560 5559 5559 5558 5558 5559 5559 5557 5557 5557 5556 5556 5556 5556 5555 5555 5554 5554 5554 5555 5555 5554 5554 5554 5553 5552 5552 5552 5551 5550 5549 5549 5548 5547 5546 5545
5546 5546 5551 5551 5550 5551 5551 5551 5551 5550 5550 5550 5550 5549 5549 5548 5548 5547 5547 5546 5546 5546 5545 5545 5544 5544 5544 5544 5544 5543 5543 5543 5542 5541 5541 5540 5540 5539 5538 5538 5537 5536 5535 5534
5540 5542 5542 5542 5542 5542 5542 5542 5542 5542 5542 5542 5541 5540 5540 5539 5538 5538 5537 5537 5536 5535 5535 5534 5533 5533 5533 5533 5532 5532 5532 5532 5531 5531 5530 5530 5529 5528 5528 5527 5526 5525 5524 5523
5531 5533 5533 5533 5533 5534 5534 5533 5533 5533 5533 5533 5532 5532 5531 5530 5529 5528 5528 5527 5526 5525 5524 5523 5522 5521 5522 5522 5522 5522 5522 5522 5522 5521 5520 5520 5519 5518 5517 5516 5515 5514 5513 5512
5523 5525 5525 5525 5525 5525 5525 5525 5524 5524 5524 5524 5523 5522 5522 5521 5520 5519 5518 5517 5516 5515 5514 5513 5512 5511 5511 5512 5512 5512 5512 5512 5512 5511 5511 5510 5509 5507 5507 5506 5505 5504 5503 5502
5517 5518 5517 5517 5517 5517 5516 5516 5516 5516 5515 5515 5514 5513 5512 5511 5511 5510 5509 5508 5507 5506 5505 5504 5503 5502 5502 5502 5502 5503 5503 5502 5502 5501 5501 5500 5499 5498 5496 5496 5495 5494 5493 5492
5509 5509 5509 5509 5509 5509 5508 5508 5508 5507 5507 5506 5505 5504 5504 5503 5502 5501 5500 5499 5498 5497 5496 5495 5494 5494 5493 5493 5493 5493 5493 5493 5492 5492 5491 5490 5489 5488 5487 5486 5485 5484 5483 5482
5501 5501 5501 5501 5501 5501 5500 5500 5499 5499 5498 5497 5497 5496 5495 5494 5493 5492 5491 5490 5490 5489 5488 5487 5486 5486 5485 5485 5485 5484 5484 5483 5483 5482 5481 5480 5479 5478 5477 5476 5476 5474 5474 5472
5494 5493 5494 5494 5493 5493 5492 5492 5491 5491 5490 5489 5488 5488 5487 5486 5485 5484 5483 5483 5482 5481 5480 5479 5479 5478 5477 5477 5476 5476 5475 5475 5474 5473 5472 5471 5470 5469 5468 5467 5466 5465 5464 5463
5487 5487 5487 5487 5486 5486 5485 5484 5484 5483 5482 5481 5480 5479 5479 5478 5477 5476 5476 5475 5474 5473 5473 5472 5471 5470 5469 5469 5468 5468 5467 5466 5465 5464 5463 5462 5461 5460 5459 5458 5457 5456 5455 5454
5481 5481 5480 5480 5479 5478 5477 5477 5476 5475 5474 5473 5472 5472 5471 5470 5469 5469 5468 5467 5466 5466 5465 5464 5463 5462 5462 5461 5460 5459 5459 5457 5456 5455 5454 5453 5451 5450 5449 5449 5448 5446 5446 5444
5474 5474 5473 5473 5472 5471 5470 5469 5469 5468 5467 5466 5465 5464 5464 5463 5462 5461 5460 5460 5459 5458 5457 5456 5455 5455 5454 5453 5452 5451 5450 5449 5448 5446 5445 5444 5442 5441 5440 5439 5438 5437 5436 5435
5469 5468 5467 5467 5466 5465 5464 5463 5462 5461 5460 5459 5458 5457 5456 5456 5455 5454 5453 5452 5451 5451 5450 5448 5448 5447 5446 5445 5443 5442 5441 5440 5439 5437 5436 5435 5433 5432 5431 5430 5429 5428 5427 5426
5463 5463 5462 5461 5460 5459 5457 5456 5455 5454 5453 5452 5451 5450 5449 5448 5447 5447 5446 5445 5444 5443 5442 5441 5440 5439 5438 5436 5435 5434 5432 5431 5430 5428 5427 5426 5425 5424 5422 5421 5420 5419 5418 5417
5459 5458 5457 5456 5455 5453 5451 5450 5449 5447 5446 5445 5444 5443 5442 5441 5440 5439 5438 5437 5436 5435 5434 5433 5432 5431 5429 5428 5427 5425 5424 5422 5421 5420 5419 5418 5417 5415 5414 5413 5412 5411 5411 5410
5454 5453 5452 5451 5449 5448 5446 5444 5443 5441 5440 5439 5437 5436 5435 5434 5433 5432 5431 5430 5429 5428 5426 5425 5424 5423 5421 5420 5418 5417 5416 5414 5413 5412 5411 5410 5409 5408 5407 5406 5405 5404 5403 5402
5450 5449 5447 5446 5444 5442 5440 5438 5437 5435 5434 5433 5431 5430 5429 5428 5427 5426 5425 5423 5422 5420 5419 5418 5416 5415 5414 5412 5411 5409 5408 5407 5405 5404 5403 5402 5401 5400 5399 5399 5398 5397 5396 5395
5445 5444 5442 5441 5439 5437 5435 5433 5432 5430 5429 5427 5426 5424 5423 5422 5420 5419 5418 5417 5415 5414 5413 5411 5410 5408 5407 5406 5404 5403 5402 5400 5399 5398 5397 5396 5395 5393 5393 5392 5391 5390 5390 5389
5440 5439 5438 5436 5434 5433 5431 5429 5427 5425 5424 5422 5420 5419 5417 5416 5415 5413 5412 5411 5409 5408 5407 5405 5404 5403 5401 5400 5398 5397 5395 5394 5393 5391 5390 5389 5388 5387 5386 5385 5384 5383 5383 5381
5436 5434 5433 5431 5430 5428 5426 5424 5422 5421 5419 5417 5415 5414 5412 5411 5409 5408 5406 5405 5404 5402 5401 5400 5398 5397 5395 5394 5392 5391 5390 5388 5387 5386 5384 5383 5382 5381 5380 5379 5378 5376 5375 5374
5431 5430 5428 5427 5425 5423 5421 5419 5417 5416 5414 5412 5410 5409 5407 5405 5404 5403 5401 5400 5398 5397 5395 5394 5393 5391 5390 5389 5387 5386 5384 5383 5382 5380 5379 5378 5376 5375 5374 5372 5371 5370 5368 5367